Peru, IL

1:09 AM CDT on April 29, 2017 (GMT -0500)
Illinois Valley Regional-Duncan

Weather History for KVYS - February, 2011

Change the Weather History Date:

Tuesday, February 15, 2011

  Actual Average Record
Temperature  
Mean Temperature 35 °F -  
Max Temperature 40 °F 36 °F 68 °F (1976)
Min Temperature 30 °F 18 °F -6 °F (1986)
Degree Days  
Heating Degree Days 30    
Moisture  
Dew Point 28 °F    
Average Humidity 76    
Maximum Humidity 93    
Minimum Humidity 61    
Precipitation  
Precipitation 0.00 in - - ()
Sea Level Pressure  
Sea Level Pressure 30.23 in    
Wind  
Wind Speed 12 mph (SSE)    
Max Wind Speed 22 mph    
Max Gust Speed 29 mph    
Visibility 9 miles    
Events      
Averages and records for this station are not official NWS values.
T = Trace of Precipitation, MM = Missing Value Source: NWS Daily Summary

Daily Weather History Graph

Daily Weather History Graph

Search for Another Location

Airport or City:

Trip Planner

Search our weather history database for the weather conditions in past years. The results will help you decide how hot, cold, wet, or windy it might be!

Date:

Astronomy

Feb. 15, 2011 Rise Set
Actual Time 6:51 AM CST 5:30 PM CST
Civil Twilight 6:23 AM CST 5:58 PM CST
Nautical Twilight 5:51 AM CST 6:30 PM CST
Astronomical Twilight 5:19 AM CST 7:03 PM CST
Moon 2:38 PM CST (2/15) 4:46 AM CST (2/15)
Length of Visible Light 11h 35m
Length of Day
10h 38m
Waxing Gibbous, 91% of the Moon is Illuminated
Feb 15
Waxing Gibbous
Feb 18
Full
Feb 24
Last Quarter
Mar 4
New
Mar 12
First Quarter

Hourly Weather History & Observations

Time (CST) Temp. Windchill Dew Point Humidity Pressure Visibility Wind Dir Wind Speed Gust Speed Precip Events Conditions
12:05 AM 30.4 °F 26.9 °F 28.4 °F 92% 30.32 in 4.0 mi SE 3.5 mph - N/A   Clear
12:25 AM 30.6 °F 24.7 °F 28.6 °F 92% 30.31 in 4.0 mi East 5.8 mph - N/A   Clear
12:45 AM 31.1 °F 23.7 °F 29.3 °F 93% 30.30 in 4.0 mi ESE 8.1 mph - N/A   Clear
1:05 AM 32.0 °F 25.6 °F 30.2 °F 93% 30.30 in 5.0 mi ESE 6.9 mph - N/A   Clear
1:25 AM 31.8 °F 24.6 °F 29.7 °F 92% 30.29 in 5.0 mi ESE 8.1 mph - N/A   Clear
1:45 AM 31.5 °F 24.2 °F 29.3 °F 92% 30.30 in 4.0 mi SE 8.1 mph - N/A   Clear
2:05 AM 31.6 °F 24.4 °F 29.3 °F 91% 30.30 in 5.0 mi SE 8.1 mph - N/A   Clear
2:25 AM 32.2 °F 23.8 °F 29.8 °F 91% 30.30 in 7.0 mi SE 10.4 mph - N/A   Clear
2:45 AM 32.2 °F 24.4 °F 28.9 °F 88% 30.30 in 7.0 mi SE 9.2 mph - N/A   Clear
3:05 AM 32.0 °F 24.8 °F 28.4 °F 87% 30.31 in 7.0 mi SSE 8.1 mph - N/A   Clear
3:25 AM 32.0 °F 24.2 °F 28.4 °F 87% 30.30 in 7.0 mi SE 9.2 mph - N/A   Clear
3:45 AM 32.0 °F 23.0 °F 28.4 °F 87% 30.30 in 7.0 mi SE 11.5 mph - N/A   Clear
4:05 AM 32.2 °F 23.8 °F 28.4 °F 86% 30.30 in 10.0 mi SE 10.4 mph - N/A   Clear
4:25 AM 32.2 °F 23.2 °F 28.4 °F 86% 30.30 in 10.0 mi SE 11.5 mph - N/A   Clear
4:45 AM 32.2 °F 23.8 °F 28.2 °F 85% 30.30 in 10.0 mi SE 10.4 mph - N/A   Clear
5:05 AM 32.0 °F 22.5 °F 28.4 °F 87% 30.29 in 10.0 mi SE 12.7 mph - N/A   Clear
5:25 AM 32.2 °F 21.8 °F 27.3 °F 82% 30.30 in 10.0 mi SE 15.0 mph - N/A   Clear
5:45 AM 32.2 °F 22.7 °F 25.7 °F 77% 30.30 in 10.0 mi SE 12.7 mph - N/A   Clear
6:05 AM 32.0 °F 22.1 °F 25.3 °F 76% 30.30 in 10.0 mi SE 13.8 mph - N/A   Clear
6:25 AM 32.0 °F 22.5 °F 24.6 °F 74% 30.30 in 10.0 mi SE 12.7 mph - N/A   Clear
6:45 AM 32.0 °F 22.5 °F 24.4 °F 74% 30.30 in 10.0 mi SSE 12.7 mph - N/A   Clear
7:05 AM 31.8 °F 22.3 °F 24.4 °F 74% 30.30 in 10.0 mi SSE 12.7 mph 18.4 mph N/A   Clear
7:25 AM 31.8 °F 21.8 °F 24.6 °F 75% 30.29 in 10.0 mi SSE 13.8 mph - N/A   Clear
7:45 AM 32.0 °F 21.6 °F 24.6 °F 74% 30.29 in 10.0 mi SSE 15.0 mph 19.6 mph N/A   Clear
8:05 AM 32.2 °F 22.7 °F 24.4 °F 73% 30.30 in 10.0 mi SSE 12.7 mph - N/A   Clear
8:25 AM 32.2 °F 22.7 °F 24.8 °F 74% 30.30 in 10.0 mi SSE 12.7 mph - N/A   Clear
8:45 AM 32.9 °F 22.8 °F 24.8 °F 72% 30.30 in 10.0 mi SSE 15.0 mph - N/A   Clear
9:05 AM 34.5 °F 24.8 °F 25.7 °F 70% 30.29 in 10.0 mi SSE 15.0 mph - N/A   Clear
9:25 AM 34.9 °F 24.9 °F 25.7 °F 69% 30.28 in 10.0 mi South 16.1 mph 20.7 mph N/A   Clear
9:45 AM 34.9 °F 25.3 °F 25.7 °F 69% 30.28 in 10.0 mi South 15.0 mph 21.9 mph N/A   Clear
10:05 AM 35.6 °F 26.6 °F 26.4 °F 69% 30.27 in 10.0 mi SSE 13.8 mph 20.7 mph N/A   Clear
10:25 AM 36.0 °F 26.0 °F 27.1 °F 70% 30.25 in 10.0 mi SSE 17.3 mph 23.0 mph N/A   Clear
10:45 AM 36.5 °F 26.3 °F 27.5 °F 70% 30.26 in 10.0 mi South 18.4 mph - N/A   Clear
11:05 AM 37.6 °F 28.4 °F 27.0 °F 66% 30.25 in 10.0 mi South 16.1 mph 25.3 mph N/A   Clear
11:25 AM 38.3 °F 28.4 °F 26.1 °F 61% 30.24 in 10.0 mi SSE 19.6 mph 25.3 mph N/A   Clear
11:45 AM 38.7 °F 28.3 °F 26.1 °F 61% 30.23 in 10.0 mi South 21.9 mph - N/A   Clear
12:05 PM 38.5 °F 28.9 °F 27.0 °F 63% 30.21 in 10.0 mi South 18.4 mph 25.3 mph N/A   Clear
12:25 PM 39.2 °F 29.3 °F 26.6 °F 61% 30.19 in 10.0 mi SSE 20.7 mph 25.3 mph N/A   Clear
12:45 PM 38.3 °F 29.0 °F 27.5 °F 65% 30.17 in 10.0 mi SSE 17.3 mph - N/A   Clear
1:05 PM 38.7 °F 29.1 °F 27.5 °F 64% 30.17 in 10.0 mi South 18.4 mph - N/A   Clear
1:25 PM 38.8 °F 30.0 °F 28.2 °F 66% 30.16 in 10.0 mi SSE 16.1 mph 21.9 mph N/A   Clear
1:45 PM 38.7 °F 29.1 °F 27.9 °F 65% 30.15 in 10.0 mi SSE 18.4 mph - N/A   Clear
2:05 PM 38.5 °F 29.6 °F 28.8 °F 68% 30.13 in 10.0 mi SSE 16.1 mph - N/A   Clear
2:25 PM 38.8 °F 29.4 °F 29.3 °F 69% 30.12 in 10.0 mi SSE 18.4 mph - N/A   Clear
2:45 PM 39.4 °F 29.8 °F 29.8 °F 69% 30.11 in 10.0 mi SSE 19.6 mph - N/A   Clear
3:05 PM 40.1 °F 30.2 °F 30.0 °F 67% 30.10 in 10.0 mi SSE 21.9 mph 27.6 mph N/A   Clear
3:25 PM 39.9 °F 30.5 °F 30.7 °F 70% 30.09 in 10.0 mi SSE 19.6 mph 28.8 mph N/A   Scattered Clouds
3:45 PM 38.8 °F 29.1 °F 30.7 °F 73% 30.08 in 10.0 mi SSE 19.6 mph 28.8 mph N/A   Scattered Clouds
4:05 PM 38.7 °F 28.6 °F 30.9 °F 74% 30.08 in 10.0 mi SSE 20.7 mph 25.3 mph N/A   Clear
4:25 PM 38.7 °F 29.5 °F 30.9 °F 74% 30.07 in 10.0 mi SSE 17.3 mph 26.5 mph N/A   Clear
4:45 PM 37.9 °F 28.2 °F 30.6 °F 75% 30.07 in 10.0 mi SSE 18.4 mph - N/A   Clear
5:05 PM 37.8 °F 28.3 °F 30.9 °F 76% 30.06 in 10.0 mi SSE 17.3 mph - N/A   Clear
5:25 PM 37.4 °F 28.2 °F 31.1 °F 78% 30.07 in 10.0 mi SSE 16.1 mph - N/A   Clear
5:45 PM 37.4 °F 28.2 °F 32.0 °F 81% 30.06 in 10.0 mi SSE 16.1 mph - N/A   Mostly Cloudy
6:05 PM 37.4 °F 29.3 °F 31.5 °F 79% 30.05 in 10.0 mi SSE 12.7 mph - N/A   Overcast
6:25 PM 37.4 °F 28.2 °F 31.6 °F 80% 30.05 in 10.0 mi SSE 16.1 mph - N/A   Overcast
6:45 PM 37.4 °F 28.9 °F 31.5 °F 79% 30.05 in 10.0 mi South 13.8 mph - N/A   Overcast
7:05 PM 37.4 °F 31.4 °F 32.0 °F 81% 30.06 in 10.0 mi South 8.1 mph - N/A   Overcast
7:25 PM 36.7 °F 29.4 °F 32.0 °F 83% 30.05 in 7.0 mi South 10.4 mph - N/A Rain Light Rain
7:45 PM 36.5 °F 28.2 °F 32.0 °F 84% 30.05 in 7.0 mi South 12.7 mph - 0.01 in Rain Light Rain
8:05 PM 36.5 °F 27.8 °F 32.4 °F 85% 30.04 in 10.0 mi South 13.8 mph - N/A   Overcast
8:25 PM 36.5 °F 28.7 °F 32.4 °F 85% 30.03 in 7.0 mi South 11.5 mph - 0.01 in Rain Light Rain
8:45 PM 36.5 °F 29.7 °F 32.5 °F 86% 30.03 in 7.0 mi South 9.2 mph - 0.01 in Rain Light Rain
9:05 PM 36.5 °F 29.2 °F 32.9 °F 87% 30.03 in 7.0 mi South 10.4 mph - 0.01 in   Drizzle
9:25 PM 36.5 °F 29.7 °F 33.3 °F 88% 30.02 in 7.0 mi South 9.2 mph - 0.01 in   Overcast
9:45 PM 37.0 °F 29.3 °F 33.4 °F 87% 30.01 in 10.0 mi South 11.5 mph - 0.01 in   Overcast
10:05 PM 37.6 °F 30.5 °F 33.1 °F 84% 30.01 in 10.0 mi South 10.4 mph - N/A   Overcast
10:25 PM 38.1 °F 30.7 °F 32.9 °F 81% 30.01 in 10.0 mi South 11.5 mph - N/A   Overcast
10:45 PM 38.3 °F 30.9 °F 32.9 °F 81% 30.00 in 10.0 mi South 11.5 mph - N/A   Overcast
11:05 PM 38.7 °F 30.9 °F 32.9 °F 80% 29.99 in 10.0 mi South 12.7 mph - N/A   Overcast
11:25 PM 40.5 °F 31.8 °F 32.5 °F 73% 29.99 in 10.0 mi South 17.3 mph - N/A   Overcast
11:45 PM 40.5 °F 32.5 °F 32.4 °F 73% 29.99 in 10.0 mi SSW 15.0 mph - N/A   Overcast